Regional Weather Roundup
Issued by NWS Boston, MA

Current Version | Previous Version | Text Only | Print | Product List | Glossary Off
Versions: 1 2 3 4 5 6 7 8 9 10 11 12 13 14 15 16 17 18 19 20 21 22 23 24 25 26 27 28

000
ASUS41 KBOX 190210
RWRBOX

REGIONAL WEATHER ROUNDUP
NATIONAL WEATHER SERVICE TAUNTON MA
1000 PM EDT FRI AUG 18 2017

NOTE:  "FAIR" INDICATES FEW OR NO CLOUDS BELOW 12,000 FEET WITH NO
SIGNIFICANT WEATHER AND/OR OBSTRUCTIONS TO VISIBILITY.

MAZALL-190300-
EASTERN MASSACHUSETTS

CITY           SKY/WX    TMP DP  RH WIND       PRES   REMARKS
BOSTON         CLOUDY    74  73  97 S10       29.81F
BEVERLY        CLOUDY    75  73  93 SW7       29.80S
LAWRENCE       CLOUDY    77  73  87 SW6       29.82S
BEDFORD        CLOUDY    75  71  87 S9        29.79S
BLUE HILL        N/A     73  71  93 S13G21    29.82F
NORWOOD        CLOUDY    76  74  93 S5        29.80F
MARSHFIELD     TSTM      75  75 100 S10       29.82F
PLYMOUTH       LGT RAIN  74  71  91 S10G22    29.83F FOG
TAUNTON        LGT RAIN  74  72  93 S8G17     29.82F
NEW BEDFORD    LGT RAIN  73  71  93 S18G26    29.82F FOG
$$

MAZALL-190300-
CAPE COD AND THE ISLANDS

CITY           SKY/WX    TMP DP  RH WIND       PRES   REMARKS
FALMOUTH       CLOUDY    73  72  94 S17       29.86F
HYANNIS        LGT RAIN  73  73 100 S13G21    29.84F FOG
CHATHAM        TSTM      69  69 100 S10G16    29.88F FOG
PROVINCETOWN   RAIN      72  71  97 S13G20    29.85F FOG
NANTUCKET      MOCLDY    70  70 100 S17       29.89F
MARTHAS VNYRD  CLOUDY    73  70  90 S18G25    29.86S
$$

MAZALL-190300-
CENTRAL AND WESTERN MASSACHUSETTS

CITY           SKY/WX    TMP DP  RH WIND       PRES   REMARKS
WORCESTER      CLOUDY    73  72  96 VRB7      29.84S FOG
FITCHBURG      CLOUDY    77  75  93 SE5       29.81S
ORANGE         CLOUDY    75  75 100 S5        29.80S
SPRINGFIELD    CLOUDY    76  74  93 S6        29.78S
WESTFIELD      CLOUDY    76  76 100 S7        29.79R
NORTH ADAMS    CLOUDY    73  71  93 SE3       29.79R
PITTSFIELD     CLOUDY    74  71  91 SW7       29.81R
$$

RIZALL-190300-
RHODE ISLAND

CITY           SKY/WX    TMP DP  RH WIND       PRES   REMARKS
PROVIDENCE     LGT RAIN  75  75 100 SW14      29.83S FOG
NEWPORT        CLOUDY    73  73 100 S14G23    29.83F
BLOCK ISLAND   TSTM      73  72  96 S18       29.83F FOG
WESTERLY       LGT RAIN  75  73  93 S14G23    29.83F FOG
$$

CTZALL-190300-
CONNECTICUT

CITY           SKY/WX    TMP DP  RH WIND       PRES   REMARKS
BRADLEY INTL   CLOUDY    77  76  96 S8        29.78R
HARTFORD       CLOUDY    77  76  96 S5        29.77F
BRIDGEPORT     CLOUDY    77  75  93 SW10      29.80R
DANBURY        MOCLDY    75  73  93 S3        29.82R
GROTON         CLOUDY    73  71  93 S14       29.81F FOG
NEW HAVEN      CLOUDY    76  75  97 S5        29.80R FOG
CHESTER        CLOUDY    75  75 100 S9        29.82S FOG
MERIDEN        CLOUDY    76  75  97 S12G17    29.79F
WILLIMANTIC    LGT RAIN  76  76 100 S8        29.80F
OXFORD         LGT RAIN  75  75 100 S7        29.82F FOG
$$

MEZ002-015-021-024-NHZ003-005-008-011-012-014-VTZ005-008-190300-
NORTHERN NEW ENGLAND

CITY           SKY/WX    TMP DP  RH WIND       PRES   REMARKS
PORTLAND ME    LGT RAIN  66  66 100 SE7       29.82F FOG
BANGOR ME      RAIN      60  58  92 SE12      29.93F FOG
CONCORD NH     LGT RAIN  64  63  96 NW3       29.83S FOG
MANCHESTER NH  CLOUDY    67  64  90 NW5       29.81R
NASHUA NH      LGT RAIN  67  67 100 NW6       29.82S
PORTSMOUTH NH  LGT RAIN  70  70  98 W5        29.80S VSB 3/4
JAFFREY NH     CLOUDY    65  65 100 CALM      29.84S
KEENE NH         N/A    N/A N/A N/A MISG        N/A
BURLINGTON VT  PTCLDY    72  67  84 E5        29.75R
MT. WASHINGTON FOG       55  55 100 SW18        N/A  VSB 1/16
$$

NYZ052-076-190300-
EASTERN NEW YORK

CITY           SKY/WX    TMP DP  RH WIND       PRES   REMARKS
ALBANY         MOCLDY    75  73  93 S8        29.76R
NEW YORK CITY  LGT RAIN  76  72  87 S8        29.79R
$$

ANZALL-190300-
MARINE OBSERVATIONS

STATION/POSITION TIME  TEMP    WIND        PRES    VSBY  WAVE
                       AIR SEA DIR/SP/G                  HT/PER
                 (UTC) (F)     (DEG/KT/KT) (MB)    (MI)  (FT/S)
BOSTON BUOY      0150   68 66  160/ 12/ 12 1009.2F         2/ 4
BUZZARDS BAY     0100   72     190/ 26/ 28 1010.3F
NANTUCKET SOUND  0150   73 71  180/ 21/ 25 1010.8F         2/ 4
MASS BAY-STELLWA 0104   69 66  180/ 16/ 19 1008.7F         3/ 5
ISLE OF SHOALS   0100   68     160/ 20/ 21 1009.0F
S OF BLOCK IS    NOT AVBL
$$

......................KEY.........................
  SKY/WX - SKY CONDITION/PRESENT WEATHER
  TMP    - TEMPERATURE IN FAHRENHEIT
  DWPT   - DEWPOINT IN FAHRENHEIT
  RH     - RELATIVE HUMIDITY IN PERCENT
  WIND   - DIRECTION AND SPEED IN MPH
  PRES   - MEAN SEA LEVEL PRESSURE IN INCHES OF HG
  WCI    - WIND CHILL INDEX
  VSB    - VISIBILITY IN MILES
  HX     - HEAT INDEX
  TC     - TEMPERATURE IN CELSIUS
  VRB    - VARIABLE WIND DIRECTION
  N/A    - NOT AVAILABLE




USA.gov is the U.S. government's official web portal to all federal, state and local government web resources and services.